Location: Clair
(33.8067°N, 117.9845°W)
Time: 17:02:50
(UTC+00:00)

Cosmos 2219 - Pass Details

Date: 14 February 2026
Orbit: 832 x 859 km, 71.1° (Epoch: 8 March)

Event Time Altitude Azimuth Distance (km) Brightness Sun altitude
Rises 13:16:58 0° 343° (NNW) 3,427 6.2 -17.2°
Reaches altitude 10° 13:19:29 10° 348° (NNW) 2,484 5.5 -16.7°
Maximum altitude 13:25:06 59° 67° (ENE) 976 3.8 -15.6°
Drops below altitude 10° 13:30:39 10° 146° (SSE) 2,452 6.2 -14.4°
Sets 13:33:06 0° 150° (SSE) 3,379 6.9 -13.9°
